User: anonymous   Login
Location: Unspecified
(0.0000°N, 0.0000°E)
Time: 17:07:39
(UTC+00:00)
Language:

HIMAWARI 8 - Orbit

View from above orbital plane
View from above orbital plane
View from above satellite
View from above satellite

Ground track
Ground track

The orbit data is extracted from the following two-line orbital elements,

1 40267U 14060A   20217.89781987 -.00000292 +00000-0 +00000-0 0  9993
2 40267 000.0234 143.5334 0000995 008.3921 265.8590 01.00272369021276
Epoch (UTC): 04 August 2020 21:32:51
Eccentricity: 0.0000995
inclination: 0.0234°
perigee height: 35782 km
apogee height: 35790 km
right ascension of ascending node: 143.5334°
argument of perigee: 8.3921°
revolutions per day: 1.00272369
mean anomaly at epoch: 265.8590°
orbit number at epoch: 2127

The dashed part of the orbit path shows where the satellite is in the earth's shadow,  

DLR